Year,Month,Day,Hour,Minute,Value (Times are PST for temperature in C)
2015,04,19,00,00,7.40
2015,04,19,00,01,7.50
2015,04,19,00,02,7.50
2015,04,19,00,03,7.50
2015,04,19,00,04,7.50
2015,04,19,00,05,7.50
2015,04,19,00,06,7.50
2015,04,19,00,07,7.60
2015,04,19,00,08,7.50
2015,04,19,00,09,7.50
2015,04,19,00,10,7.60
2015,04,19,00,11,7.50
2015,04,19,00,12,7.50
2015,04,19,00,13,7.50
2015,04,19,00,14,7.40
2015,04,19,00,15,7.40
2015,04,19,00,16,7.30
2015,04,19,00,17,7.30
2015,04,19,00,18,7.30
2015,04,19,00,19,7.20
2015,04,19,00,20,7.20
2015,04,19,00,21,7.20
2015,04,19,00,22,7.10
2015,04,19,00,23,7.10
2015,04,19,00,24,7.10
2015,04,19,00,25,7.10
2015,04,19,00,26,7.10
2015,04,19,00,27,7.10
2015,04,19,00,28,7.10
2015,04,19,00,29,7.10
2015,04,19,00,30,7.10
2015,04,19,00,31,7.00
2015,04,19,00,32,7.00
2015,04,19,00,33,7.00
2015,04,19,00,34,6.90
2015,04,19,00,35,6.90
2015,04,19,00,36,6.90
2015,04,19,00,37,6.90
2015,04,19,00,38,6.90
2015,04,19,00,39,6.80
2015,04,19,00,40,6.80
2015,04,19,00,41,6.80
2015,04,19,00,42,6.80
2015,04,19,00,43,6.80
2015,04,19,00,44,6.80
2015,04,19,00,45,6.80
2015,04,19,00,46,6.80
2015,04,19,00,47,6.80
2015,04,19,00,48,6.80
2015,04,19,00,49,6.90
2015,04,19,00,50,6.90
2015,04,19,00,51,6.90
2015,04,19,00,52,6.90
2015,04,19,00,53,6.90
2015,04,19,00,54,6.90
2015,04,19,00,55,6.90
2015,04,19,00,56,6.90
2015,04,19,00,57,6.90
2015,04,19,00,58,6.90
2015,04,19,00,59,6.90
2015,04,19,01,00,6.90
2015,04,19,01,01,6.90
2015,04,19,01,02,6.90
2015,04,19,01,03,6.90
2015,04,19,01,04,6.90
2015,04,19,01,05,6.80
2015,04,19,01,06,6.80
2015,04,19,01,07,6.80
2015,04,19,01,08,6.80
2015,04,19,01,09,6.80
2015,04,19,01,10,6.90
2015,04,19,01,11,6.80
2015,04,19,01,12,6.90
2015,04,19,01,13,6.80
2015,04,19,01,14,6.80
2015,04,19,01,15,6.80
2015,04,19,01,16,6.80
2015,04,19,01,17,6.80
2015,04,19,01,18,6.70
2015,04,19,01,19,6.70
2015,04,19,01,20,6.70
2015,04,19,01,21,6.70
2015,04,19,01,22,6.60
2015,04,19,01,23,6.60
2015,04,19,01,24,6.60
2015,04,19,01,25,6.60
2015,04,19,01,26,6.50
2015,04,19,01,27,6.50
2015,04,19,01,28,6.50
2015,04,19,01,29,6.50
2015,04,19,01,30,6.50
2015,04,19,01,31,6.50
2015,04,19,01,32,6.50
2015,04,19,01,33,6.50
2015,04,19,01,34,6.50
2015,04,19,01,35,6.40
2015,04,19,01,36,6.40
2015,04,19,01,37,6.40
2015,04,19,01,38,6.40
2015,04,19,01,39,6.40
2015,04,19,01,40,6.30
2015,04,19,01,41,6.30
2015,04,19,01,42,6.20
2015,04,19,01,43,6.20
2015,04,19,01,44,6.20
2015,04,19,01,45,6.10
2015,04,19,01,46,6.10
2015,04,19,01,47,6.10
2015,04,19,01,48,6.10
2015,04,19,01,49,6.10
2015,04,19,01,50,6.20
2015,04,19,01,51,6.30
2015,04,19,01,52,6.40
2015,04,19,01,53,6.40
2015,04,19,01,54,6.50
2015,04,19,01,55,6.60
2015,04,19,01,56,6.60
2015,04,19,01,57,6.70
2015,04,19,01,58,6.70
2015,04,19,01,59,6.70
2015,04,19,02,00,6.70
2015,04,19,02,01,6.70
2015,04,19,02,02,6.70
2015,04,19,02,03,6.70
2015,04,19,02,04,6.60
2015,04,19,02,05,6.60
2015,04,19,02,06,6.50
2015,04,19,02,07,6.50
2015,04,19,02,08,6.50
2015,04,19,02,09,6.50
2015,04,19,02,10,6.50
2015,04,19,02,11,6.60
2015,04,19,02,12,6.60
2015,04,19,02,13,6.60
2015,04,19,02,14,6.60
2015,04,19,02,15,6.60
2015,04,19,02,16,6.60
2015,04,19,02,17,6.60
2015,04,19,02,18,6.60
2015,04,19,02,19,6.70
2015,04,19,02,20,6.70
2015,04,19,02,21,6.80
2015,04,19,02,22,6.80
2015,04,19,02,23,6.80
2015,04,19,02,24,6.90
2015,04,19,02,25,6.90
2015,04,19,02,26,6.90
2015,04,19,02,27,6.90
2015,04,19,02,28,6.90
2015,04,19,02,29,6.90
2015,04,19,02,30,6.90
2015,04,19,02,31,6.90
2015,04,19,02,32,6.80
2015,04,19,02,33,6.80
2015,04,19,02,34,6.80
2015,04,19,02,35,6.80
2015,04,19,02,36,6.80
2015,04,19,02,37,6.80
2015,04,19,02,38,6.80
2015,04,19,02,39,6.70
2015,04,19,02,40,6.70
2015,04,19,02,41,6.70
2015,04,19,02,42,6.70
2015,04,19,02,43,6.70
2015,04,19,02,44,6.70
2015,04,19,02,45,6.60
2015,04,19,02,46,6.60
2015,04,19,02,47,6.60
2015,04,19,02,48,6.50
2015,04,19,02,49,6.50
2015,04,19,02,50,6.50
2015,04,19,02,51,6.50
2015,04,19,02,52,6.50
2015,04,19,02,53,6.60
2015,04,19,02,54,6.60
2015,04,19,02,55,6.60
2015,04,19,02,56,6.70
2015,04,19,02,57,6.70
2015,04,19,02,58,6.70
2015,04,19,02,59,6.70
2015,04,19,03,00,6.70
2015,04,19,03,01,6.70
2015,04,19,03,02,6.70
2015,04,19,03,03,6.70
2015,04,19,03,04,6.70
2015,04,19,03,05,6.70
2015,04,19,03,06,6.70
2015,04,19,03,07,6.80
2015,04,19,03,08,6.80
2015,04,19,03,09,6.80
2015,04,19,03,10,6.80
2015,04,19,03,11,6.80
2015,04,19,03,12,6.80
2015,04,19,03,13,6.80
2015,04,19,03,14,6.70
2015,04,19,03,15,6.70
2015,04,19,03,16,6.70
2015,04,19,03,17,6.70
2015,04,19,03,18,6.70
2015,04,19,03,19,6.70
2015,04,19,03,20,6.70
2015,04,19,03,21,6.70
2015,04,19,03,22,6.70
2015,04,19,03,23,6.70
2015,04,19,03,24,6.70
2015,04,19,03,25,6.70
2015,04,19,03,26,6.70
2015,04,19,03,27,6.70
2015,04,19,03,28,6.80
2015,04,19,03,29,6.80
2015,04,19,03,30,6.80
2015,04,19,03,31,6.80
2015,04,19,03,32,6.80
2015,04,19,03,33,6.80
2015,04,19,03,34,6.80
2015,04,19,03,35,6.80
2015,04,19,03,36,6.80
2015,04,19,03,37,6.80
2015,04,19,03,38,6.80
2015,04,19,03,39,6.80
2015,04,19,03,40,6.80
2015,04,19,03,41,6.80
2015,04,19,03,42,6.80
2015,04,19,03,43,6.90
2015,04,19,03,44,6.90
2015,04,19,03,45,6.90
2015,04,19,03,46,6.80
2015,04,19,03,47,6.80
2015,04,19,03,48,6.80
2015,04,19,03,49,6.80
2015,04,19,03,50,6.80
2015,04,19,03,51,6.80
2015,04,19,03,52,6.80
2015,04,19,03,53,6.80
2015,04,19,03,54,6.80
2015,04,19,03,55,6.80
2015,04,19,03,56,6.80
2015,04,19,03,57,6.80
2015,04,19,03,58,6.80
2015,04,19,03,59,6.80
2015,04,19,04,00,6.80
2015,04,19,04,01,6.80
2015,04,19,04,02,6.80
2015,04,19,04,03,6.80
2015,04,19,04,04,6.80
2015,04,19,04,05,6.70
2015,04,19,04,06,6.70
2015,04,19,04,07,6.70
2015,04,19,04,08,6.70
2015,04,19,04,09,6.60
2015,04,19,04,10,6.60
2015,04,19,04,11,6.60
2015,04,19,04,12,6.50
2015,04,19,04,13,6.50
2015,04,19,04,14,6.50
2015,04,19,04,15,6.40
2015,04,19,04,16,6.40
2015,04,19,04,17,6.40
2015,04,19,04,18,6.40
2015,04,19,04,19,6.30
2015,04,19,04,20,6.30
2015,04,19,04,21,6.20
2015,04,19,04,22,6.20
2015,04,19,04,23,6.10
2015,04,19,04,24,6.10
2015,04,19,04,25,6.00
2015,04,19,04,26,6.00
2015,04,19,04,27,5.90
2015,04,19,04,28,5.90
2015,04,19,04,29,5.90
2015,04,19,04,30,5.80
2015,04,19,04,31,5.90
2015,04,19,04,32,5.90
2015,04,19,04,33,5.90
2015,04,19,04,34,5.90
2015,04,19,04,35,6.00
2015,04,19,04,36,6.00
2015,04,19,04,37,6.00
2015,04,19,04,38,6.10
2015,04,19,04,39,6.10
2015,04,19,04,40,6.10
2015,04,19,04,41,6.10
2015,04,19,04,42,6.10
2015,04,19,04,43,6.10
2015,04,19,04,44,6.10
2015,04,19,04,45,6.10
2015,04,19,04,46,6.10
2015,04,19,04,47,6.10
2015,04,19,04,48,6.10
2015,04,19,04,49,6.10
2015,04,19,04,50,6.10
2015,04,19,04,51,6.10
2015,04,19,04,52,6.10
2015,04,19,04,53,6.10
2015,04,19,04,54,6.10
2015,04,19,04,55,6.10
2015,04,19,04,56,6.20
2015,04,19,04,57,6.20
2015,04,19,04,58,6.20
2015,04,19,04,59,6.20
2015,04,19,05,00,6.20
2015,04,19,05,01,6.20
2015,04,19,05,02,6.30
2015,04,19,05,03,6.50
2015,04,19,05,04,6.50
2015,04,19,05,05,6.60
2015,04,19,05,06,6.60
2015,04,19,05,07,6.70
2015,04,19,05,08,6.70
2015,04,19,05,09,6.70
2015,04,19,05,10,6.70
2015,04,19,05,11,6.70
2015,04,19,05,12,6.60
2015,04,19,05,13,6.60
2015,04,19,05,14,6.60
2015,04,19,05,15,6.60
2015,04,19,05,16,6.60
2015,04,19,05,17,6.60
2015,04,19,05,18,6.60
2015,04,19,05,19,6.60
2015,04,19,05,20,6.50
2015,04,19,05,21,6.50
2015,04,19,05,22,6.50
2015,04,19,05,23,6.50
2015,04,19,05,24,6.50
2015,04,19,05,25,6.40
2015,04,19,05,26,6.40
2015,04,19,05,27,6.40
2015,04,19,05,28,6.40
2015,04,19,05,29,6.40
2015,04,19,05,30,6.40
2015,04,19,05,31,6.40
2015,04,19,05,32,6.50
2015,04,19,05,33,6.40
2015,04,19,05,34,6.40
2015,04,19,05,35,6.40
2015,04,19,05,36,6.40
2015,04,19,05,37,6.40
2015,04,19,05,38,6.40
2015,04,19,05,39,6.40
2015,04,19,05,40,6.30
2015,04,19,05,41,6.30
2015,04,19,05,42,6.30
2015,04,19,05,43,6.30
2015,04,19,05,44,6.30
2015,04,19,05,45,6.30
2015,04,19,05,46,6.30
2015,04,19,05,47,6.20
2015,04,19,05,48,6.20
2015,04,19,05,49,6.20
2015,04,19,05,50,6.20
2015,04,19,05,51,6.20
2015,04,19,05,52,6.20
2015,04,19,05,53,6.20
2015,04,19,05,54,6.20
2015,04,19,05,55,6.20
2015,04,19,05,56,6.10
2015,04,19,05,57,6.10
2015,04,19,05,58,6.10
2015,04,19,05,59,6.10
2015,04,19,06,00,6.10
2015,04,19,06,01,6.00
2015,04,19,06,02,6.00
2015,04,19,06,03,6.00
2015,04,19,06,04,5.90
2015,04,19,06,05,5.90
2015,04,19,06,06,5.90
2015,04,19,06,07,5.90
2015,04,19,06,08,5.80
2015,04,19,06,09,5.80
2015,04,19,06,10,5.80
2015,04,19,06,11,5.70
2015,04,19,06,12,5.70
2015,04,19,06,13,5.70
2015,04,19,06,14,5.70
2015,04,19,06,15,5.60
2015,04,19,06,16,5.60
2015,04,19,06,17,5.60
2015,04,19,06,18,5.60
2015,04,19,06,19,5.60
2015,04,19,06,20,5.60
2015,04,19,06,21,5.60
2015,04,19,06,22,5.60
2015,04,19,06,23,5.60
2015,04,19,06,24,5.60
2015,04,19,06,25,5.60
2015,04,19,06,26,5.60
2015,04,19,06,27,5.60
2015,04,19,06,28,5.50
2015,04,19,06,29,5.50
2015,04,19,06,30,5.50
2015,04,19,06,31,5.50
2015,04,19,06,32,5.50
2015,04,19,06,33,5.50
2015,04,19,06,34,5.50
2015,04,19,06,35,5.50
2015,04,19,06,36,5.50
2015,04,19,06,37,5.50
2015,04,19,06,38,5.50
2015,04,19,06,39,5.50
2015,04,19,06,40,5.50
2015,04,19,06,41,5.50
2015,04,19,06,42,5.50
2015,04,19,06,43,5.50
2015,04,19,06,44,5.50
2015,04,19,06,45,5.50
2015,04,19,06,46,5.50
2015,04,19,06,47,5.50
2015,04,19,06,48,5.50
2015,04,19,06,49,5.60
2015,04,19,06,50,5.60
2015,04,19,06,51,5.60
2015,04,19,06,52,5.60
2015,04,19,06,53,5.70
2015,04,19,06,54,5.70
2015,04,19,06,55,5.70
2015,04,19,06,56,5.70
2015,04,19,06,57,5.70
2015,04,19,06,58,5.80
2015,04,19,06,59,5.80
2015,04,19,07,00,5.80
2015,04,19,07,01,5.80
2015,04,19,07,02,5.80
2015,04,19,07,03,5.80
2015,04,19,07,04,5.80
2015,04,19,07,05,5.80
2015,04,19,07,06,5.90
2015,04,19,07,07,5.90
2015,04,19,07,08,5.90
2015,04,19,07,09,6.00
2015,04,19,07,10,6.00
2015,04,19,07,11,6.00
2015,04,19,07,12,6.10
2015,04,19,07,13,6.10
2015,04,19,07,14,6.10
2015,04,19,07,15,6.20
2015,04,19,07,16,6.20
2015,04,19,07,17,6.20
2015,04,19,07,18,6.20
2015,04,19,07,19,6.20
2015,04,19,07,20,6.30
2015,04,19,07,21,6.30
2015,04,19,07,22,6.30
2015,04,19,07,23,6.30
2015,04,19,07,24,6.30
2015,04,19,07,25,6.40
2015,04,19,07,26,6.40
2015,04,19,07,27,6.50
2015,04,19,07,28,6.50
2015,04,19,07,29,6.60
2015,04,19,07,30,6.60
2015,04,19,07,31,6.60
2015,04,19,07,32,6.70
2015,04,19,07,33,6.70
2015,04,19,07,34,6.80
2015,04,19,07,35,6.80
2015,04,19,07,36,6.80
2015,04,19,07,37,6.90
2015,04,19,07,38,6.90
2015,04,19,07,39,7.00
2015,04,19,07,40,7.00
2015,04,19,07,41,7.10
2015,04,19,07,42,7.20
2015,04,19,07,43,7.30
2015,04,19,07,44,7.30
2015,04,19,07,45,7.40
2015,04,19,07,46,7.50
2015,04,19,07,47,7.60
2015,04,19,07,48,7.60
2015,04,19,07,49,7.70
2015,04,19,07,50,7.80
2015,04,19,07,51,7.90
2015,04,19,07,52,8.00
2015,04,19,07,53,8.10
2015,04,19,07,54,8.20
2015,04,19,07,55,8.30
2015,04,19,07,56,8.50
2015,04,19,07,57,8.60
2015,04,19,07,58,8.70
2015,04,19,07,59,8.70
2015,04,19,08,00,8.80
2015,04,19,08,01,8.80
2015,04,19,08,02,8.90
2015,04,19,08,03,9.00
2015,04,19,08,04,9.00
2015,04,19,08,05,9.10
2015,04,19,08,06,9.20
2015,04,19,08,07,9.30
2015,04,19,08,08,9.40
2015,04,19,08,09,9.40
2015,04,19,08,10,9.50
2015,04,19,08,11,9.60
2015,04,19,08,12,9.60
2015,04,19,08,13,9.70
2015,04,19,08,14,9.70
2015,04,19,08,15,9.70
2015,04,19,08,16,9.70
2015,04,19,08,17,9.70
2015,04,19,08,18,9.80
2015,04,19,08,19,9.80
2015,04,19,08,20,9.90
2015,04,19,08,21,10.00
2015,04,19,08,22,10.10
2015,04,19,08,23,10.20
2015,04,19,08,24,10.30
2015,04,19,08,25,10.40
2015,04,19,08,26,10.40
2015,04,19,08,27,10.50
2015,04,19,08,28,10.60
2015,04,19,08,29,10.60
2015,04,19,08,30,10.60
2015,04,19,08,31,10.70
2015,04,19,08,32,10.80
2015,04,19,08,33,10.80
2015,04,19,08,34,10.90
2015,04,19,08,35,11.00
2015,04,19,08,36,11.10
2015,04,19,08,37,11.20
2015,04,19,08,38,11.30
2015,04,19,08,39,11.30
2015,04,19,08,40,11.40
2015,04,19,08,41,11.50
2015,04,19,08,42,11.60
2015,04,19,08,43,11.70
2015,04,19,08,44,11.80
2015,04,19,08,45,11.80
2015,04,19,08,46,11.80
2015,04,19,08,47,11.90
2015,04,19,08,48,12.00
2015,04,19,08,49,12.00
2015,04,19,08,50,12.10
2015,04,19,08,51,12.10
2015,04,19,08,52,12.10
2015,04,19,08,53,12.20
2015,04,19,08,54,12.20
2015,04,19,08,55,12.20
2015,04,19,08,56,12.30
2015,04,19,08,57,12.30
2015,04,19,08,58,12.30
2015,04,19,08,59,12.40
2015,04,19,09,00,12.40
2015,04,19,09,01,12.40
2015,04,19,09,02,12.50
2015,04,19,09,03,12.60
2015,04,19,09,04,12.60
2015,04,19,09,05,12.70
2015,04,19,09,06,12.80
2015,04,19,09,07,12.80
2015,04,19,09,08,12.90
2015,04,19,09,09,13.00
2015,04,19,09,10,13.10
2015,04,19,09,11,13.20
2015,04,19,09,12,13.20
2015,04,19,09,13,13.30
2015,04,19,09,14,13.30
2015,04,19,09,15,13.40
2015,04,19,09,16,13.50
2015,04,19,09,17,13.60
2015,04,19,09,18,13.60
2015,04,19,09,19,13.60
2015,04,19,09,20,13.50
2015,04,19,09,21,13.50
2015,04,19,09,22,13.40
2015,04,19,09,23,13.40
2015,04,19,09,24,13.40
2015,04,19,09,25,13.40
2015,04,19,09,26,13.40
2015,04,19,09,27,13.50
2015,04,19,09,28,13.60
2015,04,19,09,29,13.60
2015,04,19,09,30,13.60
2015,04,19,09,31,13.70
2015,04,19,09,32,13.70
2015,04,19,09,33,13.70
2015,04,19,09,34,13.80
2015,04,19,09,35,13.80
2015,04,19,09,36,13.90
2015,04,19,09,37,14.00
2015,04,19,09,38,14.10
2015,04,19,09,39,14.10
2015,04,19,09,40,14.00
2015,04,19,09,41,14.00
2015,04,19,09,42,13.90
2015,04,19,09,43,13.90
2015,04,19,09,44,13.90
2015,04,19,09,45,13.90
2015,04,19,09,46,13.90
2015,04,19,09,47,14.00
2015,04,19,09,48,14.00
2015,04,19,09,49,14.00
2015,04,19,09,50,14.10
2015,04,19,09,51,14.20
2015,04,19,09,52,14.30
2015,04,19,09,53,14.30
2015,04,19,09,54,14.40
2015,04,19,09,55,14.50
2015,04,19,09,56,14.50
2015,04,19,09,57,14.60
2015,04,19,09,58,14.60
2015,04,19,09,59,14.70
2015,04,19,10,00,14.80
2015,04,19,10,01,14.80
2015,04,19,10,02,14.90
2015,04,19,10,03,14.90
2015,04,19,10,04,14.90
2015,04,19,10,05,14.90
2015,04,19,10,06,14.90
2015,04,19,10,07,14.80
2015,04,19,10,08,14.80
2015,04,19,10,09,14.70
2015,04,19,10,10,14.70
2015,04,19,10,11,14.70
2015,04,19,10,12,14.70
2015,04,19,10,13,14.70
2015,04,19,10,14,14.80
2015,04,19,10,15,14.90
2015,04,19,10,16,15.00
2015,04,19,10,17,15.10
2015,04,19,10,18,15.20
2015,04,19,10,19,15.30
2015,04,19,10,20,15.40
2015,04,19,10,21,15.50
2015,04,19,10,22,15.60
2015,04,19,10,23,15.70
2015,04,19,10,24,15.80
2015,04,19,10,25,15.80
2015,04,19,10,26,15.90
2015,04,19,10,27,16.00
2015,04,19,10,28,16.00
2015,04,19,10,29,16.10
2015,04,19,10,30,16.10
2015,04,19,10,31,16.00
2015,04,19,10,32,15.90
2015,04,19,10,33,15.90
2015,04,19,10,34,16.00
2015,04,19,10,35,15.90
2015,04,19,10,36,15.80
2015,04,19,10,37,15.70
2015,04,19,10,38,15.70
2015,04,19,10,39,15.70
2015,04,19,10,40,15.70
2015,04,19,10,41,15.80
2015,04,19,10,42,15.90
2015,04,19,10,43,16.00
2015,04,19,10,44,16.00
2015,04,19,10,45,16.00
2015,04,19,10,46,16.00
2015,04,19,10,47,16.00
2015,04,19,10,48,16.00
2015,04,19,10,49,16.10
2015,04,19,10,50,16.20
2015,04,19,10,51,16.30
2015,04,19,10,52,16.30
2015,04,19,10,53,16.40
2015,04,19,10,54,16.50
2015,04,19,10,55,16.50
2015,04,19,10,56,16.60
2015,04,19,10,57,16.60
2015,04,19,10,58,16.60
2015,04,19,10,59,16.60
2015,04,19,11,00,16.60
2015,04,19,11,01,16.60
2015,04,19,11,02,16.60
2015,04,19,11,03,16.70
2015,04,19,11,04,16.70
2015,04,19,11,05,16.80
2015,04,19,11,06,16.90
2015,04,19,11,07,17.00
2015,04,19,11,08,17.00
2015,04,19,11,09,17.00
2015,04,19,11,10,17.10
2015,04,19,11,11,17.20
2015,04,19,11,12,17.30
2015,04,19,11,13,17.30
2015,04,19,11,14,17.40
2015,04,19,11,15,17.40
2015,04,19,11,16,17.50
2015,04,19,11,17,17.50
2015,04,19,11,18,17.40
2015,04,19,11,19,17.40
2015,04,19,11,20,17.40
2015,04,19,11,21,17.40
2015,04,19,11,22,17.40
2015,04,19,11,23,17.50
2015,04,19,11,24,17.50
2015,04,19,11,25,17.60
2015,04,19,11,26,17.70
2015,04,19,11,27,17.80
2015,04,19,11,28,17.80
2015,04,19,11,29,17.90
2015,04,19,11,30,17.90
2015,04,19,11,31,17.90
2015,04,19,11,32,17.80
2015,04,19,11,33,17.80
2015,04,19,11,34,17.80
2015,04,19,11,35,17.90
2015,04,19,11,36,17.90
2015,04,19,11,37,18.00
2015,04,19,11,38,17.90
2015,04,19,11,39,18.00
2015,04,19,11,40,18.00
2015,04,19,11,41,18.10
2015,04,19,11,42,18.20
2015,04,19,11,43,18.30
2015,04,19,11,44,18.30
2015,04,19,11,45,18.40
2015,04,19,11,46,18.40
2015,04,19,11,47,18.50
2015,04,19,11,48,18.60
2015,04,19,11,49,18.60
2015,04,19,11,50,18.60
2015,04,19,11,51,18.60
2015,04,19,11,52,18.60
2015,04,19,11,53,18.50
2015,04,19,11,54,18.50
2015,04,19,11,55,18.50
2015,04,19,11,56,18.50
2015,04,19,11,57,18.60
2015,04,19,11,58,18.60
2015,04,19,11,59,18.70
2015,04,19,12,00,18.70
2015,04,19,12,01,18.70
2015,04,19,12,02,18.60
2015,04,19,12,03,18.70
2015,04,19,12,04,18.70
2015,04,19,12,05,18.80
2015,04,19,12,06,18.70
2015,04,19,12,07,18.80
2015,04,19,12,08,18.90
2015,04,19,12,09,18.90
2015,04,19,12,10,18.90
2015,04,19,12,11,18.90
2015,04,19,12,12,18.90
2015,04,19,12,13,18.90
2015,04,19,12,14,18.90
2015,04,19,12,15,18.90
2015,04,19,12,16,18.90
2015,04,19,12,17,18.90
2015,04,19,12,18,18.90
2015,04,19,12,19,18.80
2015,04,19,12,20,18.80
2015,04,19,12,21,18.80
2015,04,19,12,22,18.80
2015,04,19,12,23,18.80
2015,04,19,12,24,18.70
2015,04,19,12,25,18.50
2015,04,19,12,26,18.50
2015,04,19,12,27,18.60
2015,04,19,12,28,18.70
2015,04,19,12,29,18.80
2015,04,19,12,30,18.90
2015,04,19,12,31,18.90
2015,04,19,12,32,19.00
2015,04,19,12,33,19.10
2015,04,19,12,34,19.20
2015,04,19,12,35,19.30
2015,04,19,12,36,19.30
2015,04,19,12,37,19.40
2015,04,19,12,38,19.40
2015,04,19,12,39,19.50
2015,04,19,12,40,19.50
2015,04,19,12,41,19.40
2015,04,19,12,42,19.30
2015,04,19,12,43,19.30
2015,04,19,12,44,19.30
2015,04,19,12,45,19.20
2015,04,19,12,46,19.20
2015,04,19,12,47,19.10
2015,04,19,12,48,19.10
2015,04,19,12,49,19.10
2015,04,19,12,50,19.10
2015,04,19,12,51,19.10
2015,04,19,12,52,19.10
2015,04,19,12,53,19.20
2015,04,19,12,54,19.20
2015,04,19,12,55,19.30
2015,04,19,12,56,19.30
2015,04,19,12,57,19.30
2015,04,19,12,58,19.40
2015,04,19,12,59,19.40
2015,04,19,13,00,19.40
2015,04,19,13,01,19.40
2015,04,19,13,02,19.40
2015,04,19,13,03,19.40
2015,04,19,13,04,19.40
2015,04,19,13,05,19.40
2015,04,19,13,06,19.20
2015,04,19,13,07,19.00
2015,04,19,13,08,18.80
2015,04,19,13,09,18.70
2015,04,19,13,10,18.40
2015,04,19,13,11,18.20
2015,04,19,13,12,18.00
2015,04,19,13,13,18.00
2015,04,19,13,14,17.90
2015,04,19,13,15,17.80
2015,04,19,13,16,17.80
2015,04,19,13,17,17.80
2015,04,19,13,18,17.80
2015,04,19,13,19,17.80
2015,04,19,13,20,17.80
2015,04,19,13,21,17.70
2015,04,19,13,22,17.70
2015,04,19,13,23,17.80
2015,04,19,13,24,17.90
2015,04,19,13,25,18.00
2015,04,19,13,26,18.10
2015,04,19,13,27,18.10
2015,04,19,13,28,18.20
2015,04,19,13,29,18.20
2015,04,19,13,30,18.20
2015,04,19,13,31,18.20
2015,04,19,13,32,18.30
2015,04,19,13,33,18.40
2015,04,19,13,34,18.50
2015,04,19,13,35,18.60
2015,04,19,13,36,18.50
2015,04,19,13,37,18.60
2015,04,19,13,38,18.60
2015,04,19,13,39,18.70
2015,04,19,13,40,18.90
2015,04,19,13,41,19.00
2015,04,19,13,42,19.20
2015,04,19,13,43,19.30
2015,04,19,13,44,19.40
2015,04,19,13,45,19.40
2015,04,19,13,46,19.40
2015,04,19,13,47,19.40
2015,04,19,13,48,19.40
2015,04,19,13,49,19.50
2015,04,19,13,50,19.50
2015,04,19,13,51,19.60
2015,04,19,13,52,19.70
2015,04,19,13,53,19.70
2015,04,19,13,54,19.70
2015,04,19,13,55,19.50
2015,04,19,13,56,19.30
2015,04,19,13,57,19.30
2015,04,19,13,58,19.20
2015,04,19,13,59,19.20
2015,04,19,14,00,19.10
2015,04,19,14,01,19.10
2015,04,19,14,02,19.10
2015,04,19,14,03,19.00
2015,04,19,14,04,19.00
2015,04,19,14,05,19.00
2015,04,19,14,06,19.10
2015,04,19,14,07,19.10
2015,04,19,14,08,19.10
2015,04,19,14,09,19.10
2015,04,19,14,10,19.20
2015,04,19,14,11,19.30
2015,04,19,14,12,19.40
2015,04,19,14,13,19.60
2015,04,19,14,14,19.80
2015,04,19,14,15,19.90
2015,04,19,14,16,19.90
2015,04,19,14,17,19.90
2015,04,19,14,18,19.90
2015,04,19,14,19,19.80
2015,04,19,14,20,19.80
2015,04,19,14,21,19.80
2015,04,19,14,22,19.90
2015,04,19,14,23,20.00
2015,04,19,14,24,20.10
2015,04,19,14,25,20.30
2015,04,19,14,26,20.20
2015,04,19,14,27,20.00
2015,04,19,14,28,19.90
2015,04,19,14,29,19.90
2015,04,19,14,30,19.80
2015,04,19,14,31,19.90
2015,04,19,14,32,19.90
2015,04,19,14,33,20.00
2015,04,19,14,34,20.10
2015,04,19,14,35,20.10
2015,04,19,14,36,20.20
2015,04,19,14,37,20.20
2015,04,19,14,38,20.30
2015,04,19,14,39,20.40
2015,04,19,14,40,20.50
2015,04,19,14,41,20.50
2015,04,19,14,42,20.60
2015,04,19,14,43,20.60
2015,04,19,14,44,20.60
2015,04,19,14,45,20.50
2015,04,19,14,46,20.50
2015,04,19,14,47,20.50
2015,04,19,14,48,20.50
2015,04,19,14,49,20.50
2015,04,19,14,50,20.50
2015,04,19,14,51,20.50
2015,04,19,14,52,20.40
2015,04,19,14,53,20.40
2015,04,19,14,54,20.40
2015,04,19,14,55,20.30
2015,04,19,14,56,20.20
2015,04,19,14,57,20.10
2015,04,19,14,58,19.90
2015,04,19,14,59,19.80
2015,04,19,15,00,19.70
2015,04,19,15,01,19.60
2015,04,19,15,02,19.60
2015,04,19,15,03,19.60
2015,04,19,15,04,19.60
2015,04,19,15,05,19.50
2015,04,19,15,06,19.50
2015,04,19,15,07,19.40
2015,04,19,15,08,19.40
2015,04,19,15,09,19.30
2015,04,19,15,10,19.30
2015,04,19,15,11,19.30
2015,04,19,15,12,19.20
2015,04,19,15,13,19.20
2015,04,19,15,14,19.20
2015,04,19,15,15,19.20
2015,04,19,15,16,19.20
2015,04,19,15,17,19.30
2015,04,19,15,18,19.40
2015,04,19,15,19,19.30
2015,04,19,15,20,19.30
2015,04,19,15,21,19.30
2015,04,19,15,22,19.30
2015,04,19,15,23,19.30
2015,04,19,15,24,19.30
2015,04,19,15,25,19.30
2015,04,19,15,26,19.30
2015,04,19,15,27,19.40
2015,04,19,15,28,19.40
2015,04,19,15,29,19.40
2015,04,19,15,30,19.30
2015,04,19,15,31,19.20
2015,04,19,15,32,19.20
2015,04,19,15,33,19.20
2015,04,19,15,34,19.20
2015,04,19,15,35,19.20
2015,04,19,15,36,19.10
2015,04,19,15,37,19.00
2015,04,19,15,38,18.90
2015,04,19,15,39,18.90
2015,04,19,15,40,18.90
2015,04,19,15,41,18.90
2015,04,19,15,42,18.90
2015,04,19,15,43,18.80
2015,04,19,15,44,18.80
2015,04,19,15,45,18.70
2015,04,19,15,46,18.60
2015,04,19,15,47,18.60
2015,04,19,15,48,18.40
2015,04,19,15,49,18.40
2015,04,19,15,50,18.30
2015,04,19,15,51,18.30
2015,04,19,15,52,18.20
2015,04,19,15,53,18.10
2015,04,19,15,54,18.10
2015,04,19,15,55,18.10
2015,04,19,15,56,18.10
2015,04,19,15,57,18.10
2015,04,19,15,58,18.00
2015,04,19,15,59,18.00
2015,04,19,16,00,17.90
2015,04,19,16,01,17.80
2015,04,19,16,02,17.80
2015,04,19,16,03,17.80
2015,04,19,16,04,17.80
2015,04,19,16,05,17.80
2015,04,19,16,06,17.80
2015,04,19,16,07,17.80
2015,04,19,16,08,17.80
2015,04,19,16,09,17.80
2015,04,19,16,10,17.80
2015,04,19,16,11,17.90
2015,04,19,16,12,17.90
2015,04,19,16,13,17.90
2015,04,19,16,14,17.80
2015,04,19,16,15,17.80
2015,04,19,16,16,17.70
2015,04,19,16,17,17.70
2015,04,19,16,18,17.70
2015,04,19,16,19,17.80
2015,04,19,16,20,17.80
2015,04,19,16,21,17.90
2015,04,19,16,22,17.90
2015,04,19,16,23,18.00
2015,04,19,16,24,18.10
2015,04,19,16,25,18.20
2015,04,19,16,26,18.20
2015,04,19,16,27,18.30
2015,04,19,16,28,18.40
2015,04,19,16,29,18.50
2015,04,19,16,30,18.50
2015,04,19,16,31,18.50
2015,04,19,16,32,18.60
2015,04,19,16,33,18.70
2015,04,19,16,34,18.80
2015,04,19,16,35,18.90
2015,04,19,16,36,18.90
2015,04,19,16,37,19.00
2015,04,19,16,38,19.00
2015,04,19,16,39,19.10
2015,04,19,16,40,19.10
2015,04,19,16,41,19.10
2015,04,19,16,42,19.20
2015,04,19,16,43,19.20
2015,04,19,16,44,19.30
2015,04,19,16,45,19.30
2015,04,19,16,46,19.30
2015,04,19,16,47,19.30
2015,04,19,16,48,19.20
2015,04,19,16,49,19.10
2015,04,19,16,50,19.10
2015,04,19,16,51,19.10
2015,04,19,16,52,19.10
2015,04,19,16,53,19.20
2015,04,19,16,54,19.20
2015,04,19,16,55,19.20
2015,04,19,16,56,19.20
2015,04,19,16,57,19.30
2015,04,19,16,58,19.30
2015,04,19,16,59,19.30
2015,04,19,17,00,19.30
2015,04,19,17,01,19.40
2015,04,19,17,02,19.40
2015,04,19,17,03,19.40
2015,04,19,17,04,19.50
2015,04,19,17,05,19.50
2015,04,19,17,06,19.50
2015,04,19,17,07,19.50
2015,04,19,17,08,19.50
2015,04,19,17,09,19.50
2015,04,19,17,10,19.50
2015,04,19,17,11,19.50
2015,04,19,17,12,19.30
2015,04,19,17,13,19.20
2015,04,19,17,14,19.10
2015,04,19,17,15,19.00
2015,04,19,17,16,18.80
2015,04,19,17,17,18.70
2015,04,19,17,18,18.60
2015,04,19,17,19,18.60
2015,04,19,17,20,18.60
2015,04,19,17,21,18.60
2015,04,19,17,22,18.60
2015,04,19,17,23,18.60
2015,04,19,17,24,18.70
2015,04,19,17,25,18.70
2015,04,19,17,26,18.70
2015,04,19,17,27,18.80
2015,04,19,17,28,18.80
2015,04,19,17,29,18.70
2015,04,19,17,30,18.70
2015,04,19,17,31,18.70
2015,04,19,17,32,18.70
2015,04,19,17,33,18.70
2015,04,19,17,34,18.60
2015,04,19,17,35,18.60
2015,04,19,17,36,18.60
2015,04,19,17,37,18.60
2015,04,19,17,38,18.70
2015,04,19,17,39,18.70
2015,04,19,17,40,18.80
2015,04,19,17,41,18.80